GW1914 Weather Reports


Display with metric or nautical units.
time (UTC)temp
F
wind
direction
speed
MPH
gust
MPH
rain 1hr
in
rain 24hr
in
rain mn
in
humidity
%
barometer
mb
20260503024026 70 260 2.0 4.0 0.00 0.00 0.00 40 1015.3
20260503023537 71 259 2.0 4.0 0.00 0.00 0.00 36 1015.3
20260503023032 73 286 0.0 3.0 0.00 0.00 0.00 34 1015.3
20260503022523 74 297 2.0 4.0 0.00 0.00 0.00 26 1015.2
20260503022031 74 315 2.0 4.0 0.00 0.00 0.00 26 1015.1
20260503021527 74 303 2.0 3.0 0.00 0.00 0.00 27 1015.1
20260503021036 73 295 0.0 0.0 0.00 0.00 0.00 31 1015.1
20260503020524 73 257 0.0 3.0 0.00 0.00 0.00 30 1015.2
20260503020019 74 255 1.0 3.0 0.00 0.00 0.00 29 1015.2
20260503015530 75 259 1.0 2.0 0.00 0.00 0.00 29 1015.3
20260503015023 76 344 1.0 4.0 0.00 0.00 0.00 26 1015.4
20260503014534 77 348 1.0 6.0 0.00 0.00 0.00 24 1015.3
20260503014026 77 34 2.0 6.0 0.00 0.00 0.00 24 1015.3
20260503013518 77 360 2.0 4.0 0.00 0.00 0.00 24 1015.4
20260503013035 77 15 2.0 4.0 0.00 0.00 0.00 24 1015.5
20260503012522 77 31 2.0 5.0 0.00 0.00 0.00 24 1015.5
20260503012032 77 19 3.0 5.0 0.00 0.00 0.00 23 1015.4
20260503011528 77 321 2.0 5.0 0.00 0.00 0.00 23 1015.4
20260503011037 77 322 3.0 5.0 0.00 0.00 0.00 23 1015.5
20260503010528 77 311 2.0 4.0 0.00 0.00 0.00 23 1015.4
20260503010028 77 300 2.0 5.0 0.00 0.00 0.00 23 1015.5
20260503005535 77 324 3.0 5.0 0.00 0.00 0.00 23 1015.6
20260503005024 77 321 3.0 6.0 0.00 0.00 0.00 24 1015.6
20260503004519 77 309 3.0 6.0 0.00 0.00 0.00 23 1015.6
20260503004032 77 288 3.0 8.0 0.00 0.00 0.00 23 1015.7
20260503003538 77 335 4.0 10.0 0.00 0.00 0.00 24 1015.7
20260503003035 77 342 6.0 10.0 0.00 0.00 0.00 23 1015.6
20260503002525 77 26 4.0 6.0 0.00 0.00 0.00 23 1015.5
20260503002033 78 329 3.0 5.0 0.00 0.00 0.00 24 1015.5
20260503001531 78 327 2.0 5.0 0.00 0.00 0.00 23 1015.6
20260503001019 78 327 2.0 8.0 0.00 0.00 0.00 23 1015.6
20260503000529 78 78 3.0 8.0 0.00 0.00 0.00 23 1015.6
20260503000023 78 74 0.0 5.0 0.00 0.00 0.00 23 1015.7
20260502235534 78 325 3.0 11.0 0.00 0.00 0.00 23 1015.7
20260502235022 78 334 5.0 11.0 0.00 0.00 0.00 22 1015.7
20260502234548 78 26 3.0 11.0 0.00 0.00 0.00 23 1015.7
20260502234031 78 344 6.0 11.0 0.00 0.00 0.00 22 1015.8
20260502233536 78 306 2.0 10.0 0.00 0.00 0.00 23 1015.8
20260502233031 78 343 6.0 12.0 0.00 0.00 0.00 24 1015.9
20260502232522 78 46 7.0 12.0 0.00 0.00 0.00 23 1016.0
20260502232030 78 33 3.0 10.0 0.00 0.00 0.00 24 1016.1
20260502231527 78 74 4.0 10.0 0.00 0.00 0.00 23 1016.3
20260502231020 77 11 5.0 12.0 0.00 0.00 0.00 24 1016.4
20260502230529 78 360 6.0 14.0 0.00 0.00 0.00 23 1016.4
20260502230027 78 360 3.0 9.0 0.00 0.00 0.00 23 1016.4
20260502225535 78 309 6.0 10.0 0.00 0.00 0.00 23 1016.5
20260502225025 78 320 5.0 10.0 0.00 0.00 0.00 23 1016.4
20260502224522 78 319 1.0 9.0 0.00 0.00 0.00 25 1016.6
20260502224030 78 306 5.0 11.0 0.00 0.00 0.00 24 1016.7
20260502223521 78 47 7.0 11.0 0.00 0.00 0.00 23 1016.8
20260502223038 78 346 2.0 5.0 0.00 0.00 0.00 24 1016.9
20260502222526 78 288 1.0 10.0 0.00 0.00 0.00 25 1017.0
20260502222035 77 351 5.0 12.0 0.00 0.00 0.00 24 1017.1
20260502221531 78 329 5.0 9.0 0.00 0.00 0.00 24 1017.1
20260502221019 77 290 2.0 8.0 0.00 0.00 0.00 25 1017.1
20260502220535 77 307 4.0 9.0 0.00 0.00 0.00 24 1017.2
20260502220030 77 66 3.0 10.0 0.00 0.00 0.00 25 1017.2
20260502215519 77 342 5.0 10.0 0.00 0.00 0.00 24 1017.2
20260502215030 77 360 4.0 10.0 0.00 0.00 0.00 23 1017.3
20260502214538 77 19 5.0 13.0 0.00 0.00 0.00 24 1017.3
20260502214034 77 14 5.0 11.0 0.00 0.00 0.00 25 1017.4
20260502213525 77 35 5.0 11.0 0.00 0.00 0.00 24 1017.4
20260502213023 77 321 5.0 11.0 0.00 0.00 0.00 26 1017.5
20260502212532 77 5 6.0 11.0 0.00 0.00 0.00 25 1017.5
20260502212022 77 330 4.0 11.0 0.00 0.00 0.00 26 1017.5
20260502211523 76 355 3.0 6.0 0.00 0.00 0.00 25 1017.5
20260502211030 76 325 3.0 12.0 0.00 0.00 0.00 24 1017.7
20260502210536 77 325 4.0 12.0 0.00 0.00 0.00 24 1017.8
20260502205525 76 284 0.0 11.0 0.00 0.00 0.00 23 1017.7
20260502205038 76 360 7.0 11.0 0.00 0.00 0.00 24 1017.9
20260502204529 76 333 4.0 9.0 0.00 0.00 0.00 27 1018.0
20260502204020 76 5 3.0 9.0 0.00 0.00 0.00 27 1018.0
20260502203527 75 286 5.0 9.0 0.00 0.00 0.00 26 1018.1
20260502203023 75 292 6.0 9.0 0.00 0.00 0.00 25 1018.2
20260502202535 76 292 2.0 7.0 0.00 0.00 0.00 29 1018.2
20260502202023 75 240 2.0 4.0 0.00 0.00 0.00 28 1018.2
20260502201518 74 227 2.0 4.0 0.00 0.00 0.00 32 1018.3
20260502201029 75 226 0.0 8.0 0.00 0.00 0.00 31 1018.4
20260502200538 75 320 3.0 8.0 0.00 0.00 0.00 29 1018.5
20260502200034 74 110 1.0 3.0 0.00 0.00 0.00 32 1018.5
20260502195522 72 96 0.0 3.0 0.00 0.00 0.00 35 1018.7
20260502195030 73 216 2.0 3.0 0.00 0.00 0.00 37 1018.7
20260502194527 72 297 0.0 3.0 0.00 0.00 0.00 37 1018.6
20260502194020 71 205 1.0 4.0 0.00 0.00 0.00 41 1018.7
20260502193530 70 198 2.0 4.0 0.00 0.00 0.00 41 1018.7
20260502193025 70 184 1.0 3.0 0.00 0.00 0.00 43 1018.8
20260502192533 70 162 1.0 3.0 0.00 0.00 0.00 43 1018.8
20260502192024 70 182 1.0 3.0 0.00 0.00 0.00 42 1018.8
20260502191521 71 185 1.0 4.0 0.00 0.00 0.00 41 1018.9
20260502191030 71 187 1.0 4.0 0.00 0.00 0.00 36 1018.9
20260502190519 69 192 1.0 3.0 0.00 0.00 0.00 42 1019.0
20260502190035 69 196 1.0 4.0 0.00 0.00 0.00 46 1019.0
20260502185523 68 275 1.0 4.0 0.00 0.00 0.00 44 1019.1
20260502185031 66 165 1.0 3.0 0.00 0.00 0.00 55 1019.1
20260502184529 68 165 1.0 3.0 0.00 0.00 0.00 49 1019.2
20260502184018 68 198 0.0 3.0 0.00 0.00 0.00 52 1019.1
20260502183534 69 189 0.0 3.0 0.00 0.00 0.00 45 1019.1
20260502183028 67 293 0.0 2.0 0.00 0.00 0.00 45 1019.1
20260502182523 67 222 0.0 3.0 0.00 0.00 0.00 50 1019.1
20260502182029 65 205 1.0 3.0 0.00 0.00 0.00 51 1019.2
20260502181527 65 184 0.0 3.0 0.00 0.00 0.00 54 1019.3
20260502181034 64 146 1.0 3.0 0.00 0.00 0.00 58 1019.4
20260502180524 65 132 1.0 4.0 0.00 0.00 0.00 53 1019.5
20260502164026 57 213 0.0 3.0 0.00 0.00 0.00 68 1020.0
20260502163533 56 162 1.0 3.0 0.00 0.00 0.00 72 1020.0
20260502163032 56 177 1.0 3.0 0.00 0.00 0.00 77 1020.0
20260502162540 55 144 1.0 3.0 0.00 0.00 0.00 76 1019.9
20260502162025 55 157 2.0 4.0 0.00 0.00 0.00 77 1020.1
20260502161521 54 143 2.0 3.0 0.00 0.00 0.00 80 1020.1
20260502161036 53 173 2.0 4.0 0.00 0.00 0.00 79 1020.2
20260502160529 53 167 2.0 4.0 0.00 0.00 0.00 80 1020.2
20260502152031 50 180 0.0 0.0 0.00 0.00 0.00 81 1020.3
20260502151527 50 177 0.0 0.0 0.00 0.00 0.00 83 1020.1
20260502151037 50 167 0.0 0.0 0.00 0.00 0.00 82 1020.1
20260502150529 50 153 0.0 0.0 0.00 0.00 0.00 84 1020.1
20260502130530 46 236 0.0 0.0 0.00 0.00 0.00 91 1019.6
20260502123524 46 251 0.0 0.0 0.00 0.00 0.00 91 1019.5
20260502123021 46 251 0.0 0.0 0.00 0.00 0.00 91 1019.5
20260502122529 46 246 0.0 3.0 0.00 0.00 0.00 91 1019.5
20260502122019 46 244 1.0 3.0 0.00 0.00 0.00 91 1019.5
20260502121543 46 232 1.0 3.0 0.00 0.00 0.00 90 1019.5
20260502121025 46 240 0.0 1.0 0.00 0.00 0.00 91 1019.5
20260502120535 46 234 0.0 3.0 0.00 0.00 0.00 90 1019.5
20260502115538 46 246 1.0 4.0 0.00 0.00 0.00 88 1019.5
20260502115027 47 240 1.0 4.0 0.00 0.00 0.00 87 1019.5
20260502114524 47 225 0.0 3.0 0.00 0.00 0.00 89 1019.5
20260502114032 46 250 0.0 3.0 0.00 0.00 0.00 88 1019.6
20260502113526 46 223 1.0 3.0 0.00 0.00 0.00 87 1019.6
20260502113024 46 232 1.0 4.0 0.00 0.00 0.00 88 1019.6
20260502112532 46 218 1.0 4.0 0.00 0.00 0.00 87 1019.6
20260502112022 46 275 1.0 4.0 0.00 0.00 0.00 88 1019.7
20260502111518 46 202 2.0 4.0 0.00 0.00 0.00 88 1019.7
20260502111028 47 241 2.0 4.0 0.00 0.00 0.00 89 1019.6
20260502110536 47 238 1.0 4.0 0.00 0.00 0.00 89 1019.6
20260502110035 47 273 2.0 5.0 0.00 0.00 0.00 89 1019.5
20260502105521 47 237 2.0 4.0 0.00 0.00 0.00 88 1019.6
20260502105027 48 229 2.0 3.0 0.00 0.00 0.00 88 1019.5
20260502104525 48 250 0.0 2.0 0.00 0.00 0.00 86 1019.6
20260502104036 48 277 0.0 0.0 0.00 0.00 0.00 86 1019.6
20260502103524 47 277 0.0 0.0 0.00 0.00 0.00 87 1019.6
20260502103022 47 277 0.0 0.0 0.00 0.00 0.00 87 1019.6
20260502102531 47 277 0.0 3.0 0.00 0.00 0.00 87 1019.6
20260502102022 47 271 0.0 5.0 0.00 0.00 0.00 87 1019.5
20260502101519 47 234 2.0 5.0 0.00 0.00 0.00 87 1019.5
20260502101030 47 250 1.0 4.0 0.00 0.00 0.00 87 1019.4
20260502100539 47 261 1.0 4.0 0.00 0.00 0.00 86 1019.3
20260502091521 50 169 0.0 0.0 0.00 0.00 0.00 85 1019.3
20260502091035 50 169 0.0 2.0 0.00 0.00 0.00 85 1019.2
20260502090523 49 172 0.0 2.0 0.00 0.00 0.00 86 1019.4
20260502071529 51 231 1.0 4.0 0.00 0.00 0.00 81 1019.4
20260502071021 51 233 2.0 4.0 0.00 0.00 0.00 81 1019.3
20260502070528 51 246 1.0 5.0 0.00 0.00 0.00 79 1019.3
20260502070025 52 246 2.0 4.0 0.00 0.00 0.00 78 1019.3
20260502065532 52 238 1.0 4.0 0.00 0.00 0.00 79 1019.3
20260502065026 52 249 1.0 3.0 0.00 0.00 0.00 79 1019.3
20260502064523 52 250 0.0 3.0 0.00 0.00 0.00 77 1019.3
20260502064031 52 263 1.0 3.0 0.00 0.00 0.00 74 1019.3
20260502063521 52 241 2.0 4.0 0.00 0.00 0.00 76 1019.3
20260502063026 52 236 2.0 4.0 0.00 0.00 0.00 78 1019.2
20260502062526 52 225 0.0 1.0 0.00 0.00 0.00 80 1019.1
20260502062037 53 232 0.0 3.0 0.00 0.00 0.00 80 1019.2
20260502061531 53 239 1.0 3.0 0.00 0.00 0.00 80 1019.1
20260502061019 53 223 0.0 5.0 0.00 0.00 0.00 78 1019.1
20260502060530 53 199 2.0 5.0 0.00 0.00 0.00 74 1019.1
20260502060024 54 238 2.0 4.0 0.00 0.00 0.00 75 1019.0
20260502055533 54 217 2.0 3.0 0.00 0.00 0.00 76 1019.0
20260502055025 54 236 1.0 3.0 0.00 0.00 0.00 76 1019.1
20260502054527 54 232 2.0 4.0 0.00 0.00 0.00 75 1019.1
20260502054036 54 258 1.0 4.0 0.00 0.00 0.00 74 1019.1
20260502053523 54 236 1.0 4.0 0.00 0.00 0.00 73 1019.1
20260502053018 55 248 2.0 4.0 0.00 0.00 0.00 75 1019.0
20260502052529 55 234 2.0 4.0 0.00 0.00 0.00 73 1019.0
20260502052040 56 238 2.0 4.0 0.00 0.00 0.00 73 1019.0
20260502051533 56 193 1.0 4.0 0.00 0.00 0.00 70 1019.0
20260502051019 57 183 0.0 3.0 0.00 0.00 0.00 68 1019.0
20260502050530 57 138 1.0 3.0 0.00 0.00 0.00 70 1019.0
20260502050026 57 314 1.0 3.0 0.00 0.00 0.00 70 1019.1
20260502045535 57 11 1.0 4.0 0.00 0.00 0.00 69 1018.9
20260502045024 57 18 1.0 5.0 0.00 0.00 0.00 70 1018.8
20260502044518 58 143 0.0 4.0 0.00 0.00 0.00 67 1018.9
20260502044029 58 166 2.0 4.0 0.00 0.00 0.00 68 1018.9
20260502043522 58 177 2.0 4.0 0.00 0.00 0.00 69 1019.0
20260502043017 59 247 0.0 4.0 0.00 0.00 0.00 66 1018.9
20260502042528 59 109 0.0 4.0 0.00 0.00 0.00 65 1018.9
20260502042035 59 191 2.0 4.0 0.00 0.00 0.00 64 1018.9
20260502041530 60 217 2.0 4.0 0.00 0.00 0.00 63 1018.8
20260502041020 59 171 2.0 4.0 0.00 0.00 0.00 64 1018.7
20260502040532 59 220 1.0 5.0 0.00 0.00 0.00 67 1018.8
20260502040023 59 232 2.0 5.0 0.00 0.00 0.00 69 1018.8
20260502035531 60 246 1.0 3.0 0.00 0.00 0.00 64 1018.8
20260502035021 60 236 1.0 3.0 0.00 0.00 0.00 64 1018.8
20260502034517 60 190 1.0 2.0 0.00 0.00 0.00 62 1018.8
20260502034028 61 197 1.0 2.0 0.00 0.00 0.00 61 1018.8
20260502033536 61 219 1.0 2.0 0.00 0.00 0.00 59 1018.6
20260502033041 61 223 1.0 3.0 0.00 0.00 0.00 60 1018.6
20260502032522 61 233 1.0 3.0 0.00 0.00 0.00 59 1018.5
20260502032036 61 235 1.0 4.0 0.00 0.00 0.00 62 1018.2
20260502031532 62 231 2.0 4.0 0.00 0.00 0.00 62 1018.2
20260502031023 62 217 0.0 3.0 0.00 0.00 0.00 65 1018.2
20260502030531 63 230 0.0 3.0 0.00 0.00 0.00 59 1018.2
20260502030028 64 224 0.0 0.0 0.00 0.00 0.00 55 1018.1
20260502025535 65 230 0.0 0.0 0.00 0.00 0.00 53 1018.1
20260502025024 66 217 0.0 1.0 0.00 0.00 0.00 48 1018.1
20260502024519 66 217 0.0 2.0 0.00 0.00 0.00 48 1018.1